Location: Capelle
(50.3413°N, 1.9974°E)
Time: 00:27:33
(UTC+00:00)

BREEZE-M DEB (TANK) - Pass Details

Date: 12 January 2026
Orbit: 761 x 22165 km, 51.3° (Epoch: 16 February)

Event Time Altitude Azimuth Distance (km) Brightness Sun altitude
Rises 17:02:21 0° 245° (WSW) 5,581 10.1 -7.7°
Reaches altitude 10° 17:06:47 10° 244° (WSW) 3,496 8.1 -8.4°
Maximum altitude 17:13:15 75° 161° (SSE) 851 3.3 -9.3°
Enters shadow 17:17:09 12° 76° (ENE) 2,162 4.7 -9.9°
